Home > Weather > Fort Simpson > Past weeks

Flag for Canada Past Weather in Fort Simpson, Northwest Territories, Canada — Yesterday and Last 2 Weeks

Now
48 °F

Partly sunny.


Feels Like: 46 °F
Forecast: 38 / 67 °F
Wind: 5 mph from East

Location: Fort Simpson

Current Time: May 25, 2016 at 7:12:14 AM

Latest Report: May 25, 2016 at 6:00 AM


Visibility: 15 mi

Pressure: 30.03 "Hg

Humidity: 82%

Dew Point: 43 °F

Location of Fort SimpsonLocation

Past Weather in Fort Simpson — Graph

°F

Fort Simpson Temperature Yesterday

Maximum temperature yesterday: 59 °F (at 6:00 PM)
Minimum temperature yesterday: 41 °F (at 6:00 AM)
Average temperature yesterday: 50 °F

High & Low Weather Summary for the Past Weeks

 TemperatureHumidityPressure
High82 °F (May 22, 6:00 PM)93% (May 18, 7:00 AM)30.55 "Hg (May 18, 7:00 AM)
Low27 °F (May 10, 5:00 AM)15% (May 12, 5:00 PM)29.59 "Hg (May 22, 8:00 PM)
Average54 °F50%30.09 "Hg
* Reported May 10 5:00 AM — May 25 5:00 AM, Fort Simpson, Weather by CustomWeather, © 2016

Note: Actual official high and low records may vary slightly from our data, if they occured in-between our weather recording intervals... More about our weather records

Advertising

Fort Simpson Weather History for the Previous 24 Hours

Scroll right to see more
 ConditionsComfort  
Time TempWeatherWind HumidityBarometerVisibility
5:00 AM
Wed, May 25
48 °FPassing clouds.No wind87%30.01 "Hg15 mi
4:00 AM46 °FPassing clouds.No wind82%30.01 "Hg15 mi
2:00 AM48 °FPassing clouds.No wind82%30.00 "Hg15 mi
1:00 AM50 °FPassing clouds.5 mph71%29.98 "Hg15 mi
12:00 AM50 °FPartly sunny.5 mph71%29.98 "Hg15 mi
11:00 PM
Tue, May 24
54 °FPartly sunny.3 mph63%29.97 "Hg15 mi
10:00 PM55 °FPartly sunny.3 mph47%29.95 "Hg15 mi
9:00 PM55 °FPartly sunny.6 mph47%29.94 "Hg15 mi
8:00 PM57 °FPartly sunny.5 mph48%29.93 "Hg15 mi
7:00 PM57 °FPartly sunny.8 mph48%29.92 "Hg15 mi
6:00 PM59 °FBroken clouds.7 mph42%29.92 "Hg15 mi
5:00 PM57 °FBroken clouds.9 mph48%29.92 "Hg15 mi
4:00 PM57 °FPartly sunny.5 mph48%29.91 "Hg15 mi
3:00 PM55 °FPartly sunny.9 mph47%29.92 "Hg15 mi
2:00 PM54 °FOvercast.8 mph54%29.90 "Hg15 mi
1:00 PM52 °FMostly cloudy.10 mph54%29.91 "Hg15 mi
12:00 PM50 °FMostly cloudy.12 mph54%29.90 "Hg15 mi
11:00 AM48 °FPartly sunny.10 mph62%29.90 "Hg15 mi
10:00 AM46 °FPartly sunny.13 mph66%29.89 "Hg15 mi
9:00 AM45 °FPartly sunny.10 mph76%29.88 "Hg15 mi
8:00 AM43 °FPartly sunny.9 mph81%29.88 "Hg15 mi
7:53 AM43 °FPartly sunny.10 mph81%29.88 "Hg15 mi
7:00 AM41 °FSprinkles. Partly sunny.6 mph87%29.86 "Hg15 mi
Weather by CustomWeather, © 2016

See weather overviewHow to use our weather pages